Sunlight Mountain, CO

10:34 PM MDT on March 22, 2017 (GMT -0600)
Sunlight Mountain

Weather History for K5SM - October, 2013

Change the Weather History Date:

Monday, October 28, 2013

  Actual Average (KRIL) Record (KRIL)
Temperature  
Mean Temperature 38 °F -  
Max Temperature 44 °F 61 °F 78 °F (1952)
Min Temperature 32 °F 28 °F 12 °F (1970)
Degree Days  
Heating Degree Days 27    
Moisture  
Dew Point 24 °F    
Average Humidity 63    
Maximum Humidity 93    
Minimum Humidity 37    
Precipitation  
Precipitation 0.00 in - - ()
Sea Level Pressure  
Sea Level Pressure 30.00 in    
Wind  
Wind Speed 1 mph (SSE)    
Max Wind Speed 6 mph    
Max Gust Speed -    
Visibility 10 miles    
Events      
Averages and records for this station are not official NWS values.
T = Trace of Precipitation, MM = Missing Value Source: NWS Daily Summary

Daily Weather History Graph

Daily Weather History Graph

Search for Another Location

Airport or City:

Trip Planner

Search our weather history database for the weather conditions in past years. The results will help you decide how hot, cold, wet, or windy it might be!

Date:

Astronomy

Oct. 28, 2013 Rise Set
Actual Time 7:33 AM MDT 6:12 PM MDT
Civil Twilight 7:05 AM MDT 6:40 PM MDT
Nautical Twilight 6:34 AM MDT 7:11 PM MDT
Astronomical Twilight 6:03 AM MDT 7:42 PM MDT
Moon 1:31 AM MDT (10/28) 2:54 PM MDT (10/28)
Length of Visible Light 11h 34m
Length of Day
10h 38m
Waning Crescent, 33% of the Moon is Illuminated
Oct 28
Waning Crescent
Nov 3
New
Nov 9
First Quarter
Nov 17
Full
Nov 25
Last Quarter

Hourly Weather History & Observations

Time (MDT) Temp. Windchill Dew Point Humidity Pressure Visibility Wind Dir Wind Speed Gust Speed Precip Events Conditions
12:16 AM 33.8 °F - 28.4 °F 81% 30.08 in 10.0 mi Calm Calm - N/A   Clear
12:36 AM 33.8 °F - 26.6 °F 75% 30.08 in 10.0 mi Calm Calm - N/A   Clear
12:55 AM 33.8 °F - 26.6 °F 75% 30.07 in 10.0 mi Calm Calm - N/A   Scattered Clouds
1:16 AM 33.8 °F - 26.6 °F 75% 30.06 in 10.0 mi Calm Calm - N/A   Mostly Cloudy
1:36 AM 33.8 °F - 26.6 °F 75% 30.06 in 10.0 mi Calm Calm - N/A   Mostly Cloudy
1:55 AM 33.8 °F - 26.6 °F 75% 30.05 in 10.0 mi Calm Calm - N/A   Mostly Cloudy
2:16 AM 33.8 °F - 26.6 °F 75% 30.06 in 10.0 mi Calm Calm - N/A   Mostly Cloudy
2:36 AM 33.8 °F - 26.6 °F 75% 30.06 in 10.0 mi Calm Calm - N/A   Overcast
2:56 AM 35.6 °F - 28.4 °F 75% 30.06 in 10.0 mi Calm Calm - N/A   Overcast
3:16 AM 33.8 °F 30.8 °F 28.4 °F 81% 30.06 in 10.0 mi SSE 3.5 mph - N/A   Overcast
3:36 AM 33.8 °F 30.8 °F 30.2 °F 87% 30.04 in 10.0 mi SE 3.5 mph - N/A   Overcast
3:56 AM 32.0 °F - 30.2 °F 93% 30.02 in 7.0 mi Calm Calm - N/A   Scattered Clouds
4:16 AM 32.0 °F - 30.2 °F 93% 30.02 in 10.0 mi Calm Calm - N/A   Scattered Clouds
4:36 AM 32.0 °F - 28.4 °F 87% 30.02 in 10.0 mi Calm Calm - N/A   Scattered Clouds
4:56 AM 32.0 °F 27.5 °F 28.4 °F 87% 30.02 in 10.0 mi East 4.6 mph - N/A   Clear
5:16 AM 32.0 °F 27.5 °F 30.2 °F 93% 30.03 in 10.0 mi ESE 4.6 mph - N/A   Clear
5:36 AM 32.0 °F 28.7 °F 30.2 °F 93% 30.02 in 10.0 mi East 3.5 mph - N/A   Clear
5:55 AM 32.0 °F 28.7 °F 28.4 °F 87% 30.02 in 10.0 mi East 3.5 mph - N/A   Clear
6:16 AM 32.0 °F 28.7 °F 28.4 °F 87% 30.02 in 10.0 mi East 3.5 mph - N/A   Clear
6:36 AM 32.0 °F 28.7 °F 28.4 °F 87% 30.02 in 10.0 mi East 3.5 mph - N/A   Clear
6:56 AM 32.0 °F 28.7 °F 28.4 °F 87% 30.02 in 10.0 mi NE 3.5 mph - N/A   Clear
7:16 AM 32.0 °F - 26.6 °F 80% 30.02 in 10.0 mi Calm Calm - N/A   Clear
7:36 AM 32.0 °F - 26.6 °F 80% 30.01 in 10.0 mi Calm Calm - N/A   Clear
7:56 AM 32.0 °F - 26.6 °F 80% 30.00 in 10.0 mi Calm Calm - N/A   Clear
8:16 AM 33.8 °F 30.8 °F 23.0 °F 65% 30.02 in 10.0 mi WNW 3.5 mph - N/A   Clear
8:36 AM 33.8 °F - 23.0 °F 65% 30.02 in 7.0 mi Calm Calm - N/A   Clear
8:55 AM 33.8 °F - 23.0 °F 65% 30.03 in 10.0 mi Calm Calm - N/A   Clear
9:16 AM 35.6 °F - 23.0 °F 60% 30.03 in 7.0 mi Calm Calm - N/A   Clear
9:36 AM 33.8 °F - 26.6 °F 75% 30.03 in 7.0 mi Calm Calm - N/A   Clear
9:56 AM 33.8 °F - 24.8 °F 70% 30.03 in 10.0 mi Calm Calm - N/A   Scattered Clouds
10:16 AM 37.4 °F - 24.8 °F 60% 30.03 in 10.0 mi Calm Calm - N/A   Scattered Clouds
10:36 AM 41.0 °F 39.0 °F 23.0 °F 49% 30.02 in 10.0 mi SW 3.5 mph - N/A   Scattered Clouds
10:56 AM 39.2 °F 37.0 °F 23.0 °F 52% 30.02 in 10.0 mi SSW 3.5 mph - N/A   Scattered Clouds
11:15 AM 39.2 °F 37.0 °F 24.8 °F 56% 30.02 in 10.0 mi SSE 3.5 mph - N/A   Mostly Cloudy
11:36 AM 37.4 °F 34.9 °F 21.2 °F 52% 30.00 in 10.0 mi SSW 3.5 mph - N/A   Scattered Clouds
11:54 AM 37.4 °F 34.9 °F 21.2 °F 52% 30.00 in 10.0 mi South 3.5 mph - N/A   Scattered Clouds
12:16 PM 39.2 °F 37.0 °F 21.2 °F 49% 30.00 in 10.0 mi SW 3.5 mph - N/A   Mostly Cloudy
12:36 PM 41.0 °F 39.0 °F 21.2 °F 45% 29.98 in 10.0 mi South 3.5 mph - N/A   Mostly Cloudy
12:56 PM 44.6 °F - 23.0 °F 43% 29.99 in 10.0 mi Calm Calm - N/A   Scattered Clouds
1:15 PM 42.8 °F 41.1 °F 21.2 °F 42% 29.98 in 10.0 mi SW 3.5 mph - N/A   Scattered Clouds
1:35 PM 42.8 °F 41.1 °F 23.0 °F 46% 29.98 in 10.0 mi SSE 3.5 mph - N/A   Mostly Cloudy
1:55 PM 44.6 °F - 23.0 °F 43% 29.98 in 10.0 mi Calm Calm - N/A   Scattered Clouds
2:16 PM 42.8 °F 41.1 °F 21.2 °F 42% 29.97 in 10.0 mi South 3.5 mph - N/A   Scattered Clouds
2:35 PM 44.6 °F 43.1 °F 19.4 °F 37% 29.96 in 10.0 mi South 3.5 mph - N/A   Clear
2:56 PM 42.8 °F 41.1 °F 23.0 °F 46% 29.96 in 10.0 mi SSE 3.5 mph - N/A   Clear
3:16 PM 44.6 °F 43.1 °F 23.0 °F 43% 29.97 in 10.0 mi South 3.5 mph - N/A   Clear
3:37 PM 42.8 °F 41.1 °F 21.2 °F 42% 29.97 in 10.0 mi SW 3.5 mph - N/A   Clear
3:57 PM 42.8 °F - 23.0 °F 46% 29.96 in 10.0 mi Calm Calm - N/A   Clear
4:16 PM 41.0 °F 39.0 °F 23.0 °F 49% 29.96 in 10.0 mi South 3.5 mph - N/A   Clear
4:37 PM 41.0 °F 38.0 °F 21.2 °F 45% 29.96 in 10.0 mi South 4.6 mph - N/A   Clear
4:56 PM 41.0 °F - 19.4 °F 42% 29.98 in 10.0 mi Calm Calm - N/A   Clear
5:17 PM 37.4 °F - 19.4 °F 48% 29.97 in 10.0 mi Calm Calm - N/A   Clear
5:37 PM 37.4 °F - 19.4 °F 48% 29.97 in 10.0 mi Calm Calm - N/A   Clear
5:57 PM 35.6 °F - 21.2 °F 56% 29.97 in 10.0 mi Calm Calm - N/A   Clear
6:16 PM 35.6 °F - 21.2 °F 56% 29.98 in 10.0 mi Calm Calm - N/A   Clear
6:37 PM 35.6 °F - 19.4 °F 52% 29.99 in 10.0 mi Calm Calm - N/A   Clear
6:56 PM 35.6 °F - 19.4 °F 52% 30.00 in 10.0 mi Calm Calm - N/A   Scattered Clouds
7:17 PM 35.6 °F - 19.4 °F 52% 30.00 in 10.0 mi Calm Calm - N/A   Mostly Cloudy
7:36 PM 33.8 °F 30.8 °F 21.2 °F 60% 29.99 in 10.0 mi ESE 3.5 mph - N/A   Scattered Clouds
7:57 PM 33.8 °F 30.8 °F 21.2 °F 60% 29.99 in 10.0 mi SE 3.5 mph - N/A   Clear
8:17 PM 35.6 °F 32.8 °F 23.0 °F 60% 29.99 in 10.0 mi SE 3.5 mph - N/A   Clear
8:36 PM 35.6 °F - 21.2 °F 56% 29.99 in 10.0 mi Calm Calm - N/A   Clear
8:56 PM 35.6 °F - 21.2 °F 56% 29.98 in 10.0 mi Calm Calm - N/A   Clear
9:17 PM 35.6 °F - 21.2 °F 56% 29.98 in 10.0 mi Calm Calm - N/A   Clear
9:36 PM 35.6 °F - 23.0 °F 60% 29.98 in 10.0 mi Calm Calm - N/A   Clear
9:57 PM 35.6 °F 32.8 °F 21.2 °F 56% 29.96 in 10.0 mi SSW 3.5 mph - N/A   Clear
10:17 PM 35.6 °F - 19.4 °F 52% 29.95 in 10.0 mi Calm Calm - N/A   Clear
10:36 PM 35.6 °F 30.7 °F 19.4 °F 52% 29.96 in 10.0 mi East 5.8 mph - N/A   Clear
10:57 PM 35.6 °F - 19.4 °F 52% 29.97 in 10.0 mi Calm Calm - N/A   Clear
11:17 PM 35.6 °F - 21.2 °F 56% 29.98 in 10.0 mi Calm Calm - N/A   Clear
11:36 PM 35.6 °F - 19.4 °F 52% 29.99 in 10.0 mi Calm Calm - N/A   Clear
11:57 PM 35.6 °F - 21.2 °F 56% 30.00 in 10.0 mi Calm Calm - N/A   Clear